Weather reports worldwide

Advertisment
Ploce, Croatia (14462): temperature & dewpoint: 15.01.2020 23:00:00 - 21.01.2020 23:00:00 (CET)Ploce, Croatia (14462): wind speed: 15.01.2020 23:00:00 - 21.01.2020 23:00:00 (CET)Ploce, Croatia (14462): wind direction: 15.01.2020 23:00:00 - 21.01.2020 23:00:00 (CET)Ploce, Croatia (14462): reduced air pressure: 15.01.2020 23:00:00 - 21.01.2020 23:00:00 (CET)Ploce, Croatia (14462): visibility: 15.01.2020 23:00:00 - 21.01.2020 23:00:00 (CET)
Date & Time tt [°C] td [°C] ff [km/h] ff [kn] dd ppp [hPa] vv [km]
21.01.2020 23:00:00 - - - - - - -
21.01.2020 22:00:00 1,8 -0,6 4 2 ENE 1037,6 -
21.01.2020 21:00:00 2,6 -0,4 0 0 N 1037,6 20
21.01.2020 20:00:00 2,8 1,1 4 2 NNE 1037,6 20
21.01.2020 19:00:00 3,6 0,2 0 0 N 1037,6 20
21.01.2020 18:00:00 5,6 0,6 4 2 NE 1038,1 -
21.01.2020 17:00:00 8,3 -0,2 4 2 NNW 1037,9 -
21.01.2020 16:00:00 10,3 0,4 7 4 NNW 1038,2 -
21.01.2020 15:00:00 11,4 -1,7 7 4 W 1038,5 -
21.01.2020 14:00:00 10,6 -3,5 11 6 SW 1038,6 20
21.01.2020 13:00:00 10,8 -3,1 7 4 SSE 1039,4 20
21.01.2020 12:00:00 9,5 -4,2 7 4 SE 1040,5 30
21.01.2020 11:00:00 7,5 -4,6 11 6 NNE 1040,9 30
21.01.2020 10:00:00 5,5 -3,4 4 2 E 1040,9 30
21.01.2020 09:00:00 2,6 -2,7 4 2 ENE 1040,9 30
21.01.2020 08:00:00 0,8 -3,3 7 4 NNE 1040,9 30
21.01.2020 07:00:00 1,4 -4,5 0 0 N 1040,7 30
21.01.2020 06:00:00 0,5 - 7 4 ENE - -
21.01.2020 05:00:00 0,3 - 4 2 NNE - -
21.01.2020 04:00:00 1,4 - 0 0 N - -
21.01.2020 03:00:00 - - - - - - -
21.01.2020 02:00:00 - - - - - - -
21.01.2020 01:00:00 2,8 - 4 2 S - -
21.01.2020 00:00:00 - - - - - - -
20.01.2020 23:00:00 - - - - - - -
20.01.2020 22:00:00 4,8 - 11 6 NNE - -
20.01.2020 21:00:00 5,0 -3,7 11 6 NNE 1040,8 30
20.01.2020 20:00:00 5,8 -2,0 18 10 NNE 1040,2 30
20.01.2020 19:00:00 7,0 -4,3 11 6 NNE 1039,7 30
20.01.2020 18:00:00 6,9 -4,8 4 2 ENE 1039,6 -
20.01.2020 17:00:00 7,5 -4,9 4 2 N 1038,3 -
20.01.2020 16:00:00 9,6 -5,1 14 8 NNE 1038,1 -
20.01.2020 15:00:00 10,9 -4,7 11 6 N 1037,8 -
20.01.2020 14:00:00 11,1 -4,8 18 10 NNE 1036,9 30
20.01.2020 13:00:00 10,8 -4,2 18 10 NNE 1037,0 30
20.01.2020 12:00:00 9,8 -4,4 18 10 NNE 1037,2 30
20.01.2020 11:00:00 8,8 -5,4 18 10 NNE 1037,4 30
20.01.2020 10:00:00 7,6 -4,7 14 8 NNE 1037,0 30
20.01.2020 09:00:00 6,2 -5,1 14 8 NNE 1036,2 30
20.01.2020 08:00:00 5,0 -4,7 18 10 NNE 1035,3 30
20.01.2020 07:00:00 4,4 -4,5 18 10 NNW 1034,7 30
20.01.2020 06:00:00 4,6 -4,4 11 6 N 1034,6 -
20.01.2020 05:00:00 5,1 -4,4 18 10 N 1034,4 -
20.01.2020 04:00:00 5,0 -4,3 14 8 N 1033,7 -
20.01.2020 03:00:00 - - - - - - -
20.01.2020 02:00:00 - - - - - - -
20.01.2020 01:00:00 5,2 -3,8 7 4 NNE 1032,2 -
20.01.2020 00:00:00 - - - - - - -
19.01.2020 23:00:00 - - - - - - -
19.01.2020 22:00:00 6,1 -3,5 4 2 NNE 1030,6 -
19.01.2020 21:00:00 6,8 -3,1 14 8 NNW 1029,5 20
19.01.2020 20:00:00 7,0 -2,8 11 6 NNE 1028,8 20
19.01.2020 19:00:00 7,4 -1,9 22 12 NNE 1027,6 20
19.01.2020 18:00:00 8,0 -2,0 25 14 NNE 1027,1 -
19.01.2020 17:00:00 8,5 -1,3 22 12 N 1025,9 -
19.01.2020 16:00:00 10,4 -1,3 18 10 NNE 1024,9 -
19.01.2020 15:00:00 12,0 -0,5 14 8 NNE 1024,2 -
19.01.2020 14:00:00 12,3 0,9 22 12 NNE 1022,9 20
19.01.2020 13:00:00 11,8 0,8 18 10 NNW 1022,9 20
19.01.2020 12:00:00 10,8 1,4 18 10 NNE 1023,1 20
19.01.2020 11:00:00 10,6 3,0 11 6 NNE 1022,9 20
19.01.2020 10:00:00 9,4 2,0 7 4 NNE 1022,4 20
19.01.2020 09:00:00 7,2 4,5 4 2 ENE 1021,7 20
19.01.2020 08:00:00 4,2 3,8 4 2 ENE 1021,3 20
19.01.2020 07:00:00 3,8 3,3 0 0 N 1021,0 15
19.01.2020 06:00:00 4,2 4,3 4 2 E 1020,8 -
19.01.2020 05:00:00 5,2 5,1 4 2 NE 1020,2 -
19.01.2020 04:00:00 5,5 5,4 0 0 N 1020,3 -
19.01.2020 03:00:00 - - - - - - -
19.01.2020 02:00:00 - - - - - - -
19.01.2020 01:00:00 5,7 5,8 7 4 N 1020,1 -
19.01.2020 00:00:00 - - - - - - -
18.01.2020 23:00:00 - - - - - - -
18.01.2020 22:00:00 5,5 5,4 7 4 ENE 1020,3 -
18.01.2020 21:00:00 6,4 5,8 7 4 ESE 1020,4 5
18.01.2020 20:00:00 5,8 5,2 14 8 NNW 1020,5 5
18.01.2020 19:00:00 5,5 4,9 7 4 N 1020,5 5
18.01.2020 18:00:00 5,6 5,4 7 4 N 1020,9 -
18.01.2020 17:00:00 5,3 4,5 4 2 SSE 1020,5 -
18.01.2020 16:00:00 5,3 4,0 7 4 NNE 1020,7 -
18.01.2020 15:00:00 6,3 1,7 7 4 ENE 1020,6 -
18.01.2020 14:00:00 6,1 1,3 7 4 NNW 1020,8 20
18.01.2020 13:00:00 5,2 1,3 11 6 E 1021,6 20
18.01.2020 12:00:00 4,0 0,9 4 2 NNW 1022,5 20
18.01.2020 11:00:00 3,2 0,0 11 6 E 1023,5 20
18.01.2020 10:00:00 2,4 -0,3 7 4 ENE 1023,7 20
18.01.2020 09:00:00 1,8 0,1 7 4 E 1023,6 20
18.01.2020 08:00:00 1,6 -0,1 7 4 E 1023,7 20
18.01.2020 07:00:00 1,0 -0,5 7 4 E 1023,8 20
18.01.2020 06:00:00 0,3 -0,6 4 2 ENE 1023,9 -
18.01.2020 05:00:00 0,3 -0,3 7 4 ENE 1023,9 -
18.01.2020 04:00:00 1,0 0,1 11 6 ENE 1024,0 -
18.01.2020 03:00:00 - - - - - - -
18.01.2020 02:00:00 - - - - - - -
18.01.2020 01:00:00 1,6 1,0 7 4 ENE 1024,3 -
18.01.2020 00:00:00 - - - - - - -
17.01.2020 23:00:00 - - - - - - -
17.01.2020 22:00:00 2,5 2,1 4 2 NNW 1024,7 -
17.01.2020 21:00:00 3,3 2,4 4 2 NNE 1024,4 30
17.01.2020 20:00:00 4,0 2,9 0 0 N 1024,2 30
17.01.2020 19:00:00 5,2 3,0 0 0 N 1024,2 30
17.01.2020 18:00:00 6,1 3,5 4 2 NNW 1024,5 -
17.01.2020 17:00:00 8,9 5,0 4 2 ENE 1024,2 -
17.01.2020 16:00:00 12,5 5,0 7 4 WSW 1023,9 -
17.01.2020 15:00:00 12,5 4,0 7 4 SW 1024,1 -
17.01.2020 14:00:00 13,4 2,2 11 6 SW 1024,0 30
17.01.2020 13:00:00 13,2 0,2 0 0 N 1024,4 30
17.01.2020 12:00:00 11,6 0,2 4 2 SE 1025,0 30
17.01.2020 11:00:00 9,0 0,0 7 4 SE 1025,5 30
17.01.2020 10:00:00 6,8 1,6 0 0 N 1026,0 30
17.01.2020 09:00:00 3,4 0,5 7 4 E 1025,9 30
17.01.2020 08:00:00 0,4 -0,9 0 0 N 1025,7 30
17.01.2020 07:00:00 0,5 -0,8 7 4 ENE 1025,5 30
17.01.2020 06:00:00 0,9 -0,3 7 4 ENE 1025,7 -
17.01.2020 05:00:00 2,0 -0,2 7 4 E 1025,6 -
17.01.2020 04:00:00 1,6 -0,1 7 4 ENE 1025,7 -
17.01.2020 03:00:00 - - - - - - -
17.01.2020 02:00:00 - - - - - - -
17.01.2020 01:00:00 2,9 0,7 7 4 ENE 1026,0 -
17.01.2020 00:00:00 - - - - - - -
16.01.2020 23:00:00 - - - - - - -
16.01.2020 22:00:00 4,1 2,7 4 2 NNE 1026,5 -
16.01.2020 21:00:00 4,6 2,6 0 0 N 1026,4 15
16.01.2020 20:00:00 4,8 3,7 4 2 NNE 1026,2 20
16.01.2020 19:00:00 6,2 4,3 7 4 ENE 1026,1 20
16.01.2020 18:00:00 6,5 5,0 4 2 NNW 1026,1 -
16.01.2020 17:00:00 8,7 5,5 0 0 N 1025,9 -
16.01.2020 16:00:00 12,0 5,5 4 2 NW 1025,8 -
16.01.2020 15:00:00 12,5 4,8 11 6 W 1026,1 -
16.01.2020 14:00:00 13,0 3,0 11 6 W 1026,0 20
16.01.2020 13:00:00 12,4 0,5 7 4 SW 1026,8 20
16.01.2020 12:00:00 11,6 1,6 4 2 SSE 1027,3 20
16.01.2020 11:00:00 8,6 2,2 7 4 ESE 1028,3 20
16.01.2020 10:00:00 6,0 1,9 7 4 ENE 1028,8 30
16.01.2020 09:00:00 4,2 1,1 4 2 E 1028,8 30
16.01.2020 08:00:00 1,2 0,5 4 2 ENE 1028,8 30
16.01.2020 07:00:00 0,6 0,1 7 4 ENE 1028,8 30
16.01.2020 06:00:00 0,9 0,7 7 4 ENE 1029,3 -
16.01.2020 05:00:00 1,1 0,7 4 2 ENE 1029,1 -
16.01.2020 04:00:00 2,0 1,6 4 2 ENE 1029,2 -
16.01.2020 03:00:00 - - - - - - -
16.01.2020 02:00:00 - - - - - - -
16.01.2020 01:00:00 2,7 2,0 4 2 ENE 1029,1 -
16.01.2020 00:00:00 - - - - - - -
15.01.2020 23:00:00 - - - - - - -

tt = temperature
td = dewpoint
ff = wind speed
dd = wind direction
ppp = reduced air pressure
vv = visibility

Next stations